Location: Unspecified
(0.0000°N, 0.0000°E)
Time: 15:59:44
(UTC+00:00)

ISS - Visible Passes

Search period start: 25 April 2015 00:00
Search period end: 05 May 2015 00:00
Orbit: 395 x 402 km, 51.6° (Epoch: 25 April)

Date Brightness Start Highest point End Pass type
(mag) Time Alt. Az. Time Alt. Az. Time Alt. Az.
27 Apr -1.0 19:13:30 10° N 19:14:16 13° NNE 19:14:16 13° NNE visible
28 Apr -0.4 19:54:49 10° NW 19:55:45 17° WNW 19:55:45 17° WNW visible
29 Apr -3.4 19:00:42 10° NNW 19:03:52 61° NE 19:04:41 43° ESE visible
30 Apr -0.3 19:44:50 10° WSW 19:46:08 12° SW 19:46:16 12° SW visible
01 May -1.7 18:49:08 10° WNW 18:52:04 31° SW 18:54:59 10° S visible
03 May -2.1 05:28:03 10° SSW 05:31:06 40° SE 05:34:09 10° NE visible
04 May -0.5 04:35:17 10° SSE 04:37:03 14° SE 04:38:57 10° E visible
